Time,TemperatureF,DewpointF,PressureIn,WindDirection,WindDirectionDegrees,WindSpeedMPH,WindSpeedGustMPH,Humidity,HourlyPrecipIn,Conditions,Clouds,dailyrainin,SoftwareType,DateUTC
2013-03-30 00:00:00,48.1,39.4,30.09,ENE,68,1.8,2.7,72,0.00,,,0.01,WUHU216HW,2013-03-30 04:00:00,
2013-03-30 00:05:00,48.1,39.1,30.08,ENE,68,0.2,2.7,71,0.00,,,0.00,WUHU216HW,2013-03-30 04:05:00,
2013-03-30 00:10:00,48.1,39.1,30.08,ENE,68,2.0,2.5,71,0.00,,,0.00,WUHU216HW,2013-03-30 04:10:00,
2013-03-30 00:15:00,48.1,39.1,30.08,NE,45,0.0,3.4,71,0.00,,,0.00,WUHU216HW,2013-03-30 04:15:00,
2013-03-30 00:20:00,47.9,38.9,30.08,NE,45,2.5,3.4,71,0.00,,,0.00,WUHU216HW,2013-03-30 04:20:00,
2013-03-30 00:25:00,47.9,39.2,30.08,ENE,68,1.3,2.5,72,0.00,,,0.00,WUHU216HW,2013-03-30 04:25:00,
2013-03-30 00:30:00,47.9,39.2,30.07,NE,45,2.9,3.8,72,0.00,,,0.00,WUHU216HW,2013-03-30 04:30:00,
2013-03-30 00:35:00,47.9,39.2,30.07,ENE,68,2.0,3.8,72,0.00,,,0.00,WUHU216HW,2013-03-30 04:35:00,
2013-03-30 00:40:00,47.9,39.2,30.08,NE,45,0.7,3.4,72,0.00,,,0.00,WUHU216HW,2013-03-30 04:40:00,
2013-03-30 00:45:00,47.9,38.9,30.08,NE,45,0.0,2.9,71,0.00,,,0.00,WUHU216HW,2013-03-30 04:45:00,
2013-03-30 00:50:00,47.7,38.7,30.08,NE,45,0.0,0.7,71,0.00,,,0.00,WUHU216HW,2013-03-30 04:50:00,
2013-03-30 00:55:00,47.7,38.7,30.08,ENE,68,1.3,1.3,71,0.00,,,0.00,WUHU216HW,2013-03-30 04:55:00,
2013-03-30 01:00:00,47.5,38.6,30.08,ENE,68,0.2,1.3,71,0.00,,,0.00,WUHU216HW,2013-03-30 05:00:00,
2013-03-30 01:05:00,47.5,38.6,30.08,ENE,68,0.7,1.3,71,0.00,,,0.00,WUHU216HW,2013-03-30 05:05:00,
2013-03-30 01:10:00,47.5,38.6,30.08,ENE,68,0.0,0.9,71,0.00,,,0.00,WUHU216HW,2013-03-30 05:10:00,
2013-03-30 01:15:00,47.3,38.4,30.07,ENE,68,0.0,0.9,71,0.00,,,0.00,WUHU216HW,2013-03-30 05:15:00,
2013-03-30 01:20:00,47.2,38.3,30.07,ENE,68,0.0,0.2,71,0.00,,,0.00,WUHU216HW,2013-03-30 05:20:00,
2013-03-30 01:25:00,47.2,38.3,30.07,ENE,68,0.0,0.4,71,0.00,,,0.00,WUHU216HW,2013-03-30 05:25:00,
2013-03-30 01:30:00,47.2,38.3,30.07,ENE,68,0.0,0.4,71,0.00,,,0.00,WUHU216HW,2013-03-30 05:30:00,
2013-03-30 01:35:00,47.2,38.6,30.07,ENE,68,0.0,0.0,72,0.00,,,0.00,WUHU216HW,2013-03-30 05:35:00,
2013-03-30 01:40:00,47.0,38.4,30.06,ENE,68,0.0,0.0,72,0.00,,,0.00,WUHU216HW,2013-03-30 05:40:00,
2013-03-30 01:45:00,46.8,38.3,30.06,ENE,68,0.2,0.2,72,0.00,,,0.00,WUHU216HW,2013-03-30 05:45:00,
2013-03-30 01:50:00,46.6,38.4,30.06,NNE,23,0.2,1.1,73,0.00,,,0.00,WUHU216HW,2013-03-30 05:50:00,
2013-03-30 01:55:00,46.4,38.6,30.07,NNE,23,0.4,1.1,74,0.00,,,0.00,WUHU216HW,2013-03-30 05:55:00,
2013-03-30 02:00:00,46.4,39.0,30.06,NNE,23,0.7,0.7,75,0.00,,,0.00,WUHU216HW,2013-03-30 06:00:00,
2013-03-30 02:05:00,46.3,39.5,30.06,NNE,23,0.0,1.1,77,0.00,,,0.00,WUHU216HW,2013-03-30 06:05:00,
2013-03-30 02:10:00,46.1,39.3,30.07,NNE,23,0.2,1.1,77,0.00,,,0.00,WUHU216HW,2013-03-30 06:10:00,
2013-03-30 02:15:00,45.7,39.2,30.06,NNE,23,0.0,0.7,78,0.00,,,0.00,WUHU216HW,2013-03-30 06:15:00,
2013-03-30 02:20:00,45.7,39.2,30.06,NNE,23,0.0,0.7,78,0.00,,,0.00,WUHU216HW,2013-03-30 06:20:00,
2013-03-30 02:25:00,45.5,39.1,30.06,NNE,23,0.0,0.2,78,0.00,,,0.00,WUHU216HW,2013-03-30 06:25:00,
2013-03-30 02:30:00,45.5,39.1,30.07,NNE,23,0.4,0.7,78,0.00,,,0.00,WUHU216HW,2013-03-30 06:30:00,
2013-03-30 02:35:00,45.5,39.1,30.06,NNE,23,0.0,0.7,78,0.00,,,0.00,WUHU216HW,2013-03-30 06:35:00,
2013-03-30 02:40:00,45.4,39.2,30.06,NE,45,0.9,1.1,79,0.00,,,0.00,WUHU216HW,2013-03-30 06:40:00,
2013-03-30 02:45:00,45.4,39.6,30.06,NE,45,0.0,1.1,80,0.00,,,0.00,WUHU216HW,2013-03-30 06:45:00,
2013-03-30 02:50:00,45.4,39.9,30.05,ENE,68,2.5,2.7,81,0.00,,,0.00,WUHU216HW,2013-03-30 06:50:00,
2013-03-30 02:55:00,45.2,40.1,30.04,East,90,1.6,2.7,82,0.00,,,0.00,WUHU216HW,2013-03-30 06:55:00,
2013-03-30 03:00:00,45.2,40.1,30.04,ENE,68,1.3,2.5,82,0.00,,,0.00,WUHU216HW,2013-03-30 07:00:00,
2013-03-30 03:05:00,45.2,40.3,30.04,ENE,68,1.6,2.9,83,0.00,,,0.00,WUHU216HW,2013-03-30 07:05:00,
2013-03-30 03:10:00,45.0,40.1,30.04,NE,45,0.7,2.9,83,0.00,,,0.00,WUHU216HW,2013-03-30 07:10:00,
2013-03-30 03:15:00,45.2,40.3,30.04,ENE,68,1.8,2.2,83,0.00,,,0.00,WUHU216HW,2013-03-30 07:15:00,
2013-03-30 03:20:00,45.2,40.3,30.04,ENE,68,0.4,1.8,83,0.00,,,0.00,WUHU216HW,2013-03-30 07:20:00,
2013-03-30 03:25:00,45.4,40.2,30.03,East,90,0.0,1.3,82,0.00,,,0.00,WUHU216HW,2013-03-30 07:25:00,
2013-03-30 03:30:00,45.4,39.9,30.04,NE,45,0.0,1.8,81,0.00,,,0.00,WUHU216HW,2013-03-30 07:30:00,
2013-03-30 03:35:00,45.4,39.9,30.05,NE,45,0.0,1.8,81,0.00,,,0.00,WUHU216HW,2013-03-30 07:35:00,
2013-03-30 03:40:00,45.4,39.9,30.05,NE,45,0.4,0.4,81,0.00,,,0.00,WUHU216HW,2013-03-30 07:40:00,
2013-03-30 03:45:00,45.2,39.7,30.06,NE,45,0.7,1.1,81,0.00,,,0.00,WUHU216HW,2013-03-30 07:45:00,
2013-03-30 03:50:00,45.2,39.7,30.06,West,270,0.0,1.1,81,0.00,,,0.00,WUHU216HW,2013-03-30 07:50:00,
2013-03-30 03:55:00,45.2,40.1,30.05,WNW,293,0.7,1.1,82,0.00,,,0.00,WUHU216HW,2013-03-30 07:55:00,
2013-03-30 04:00:00,45.0,39.9,30.05,NNW,338,0.4,1.1,82,0.00,,,0.00,WUHU216HW,2013-03-30 08:00:00,
2013-03-30 04:05:00,45.0,39.9,30.05,NNW,338,0.0,0.9,82,0.00,,,0.00,WUHU216HW,2013-03-30 08:05:00,
2013-03-30 04:10:00,45.2,39.7,30.05,NNW,338,0.0,0.4,81,0.00,,,0.00,WUHU216HW,2013-03-30 08:10:00,
2013-03-30 04:15:00,45.0,39.5,30.05,NNW,338,0.0,0.4,81,0.00,,,0.00,WUHU216HW,2013-03-30 08:15:00,
2013-03-30 04:20:00,45.0,39.5,30.05,NNW,338,0.0,0.4,81,0.00,,,0.00,WUHU216HW,2013-03-30 08:20:00,
2013-03-30 04:25:00,45.0,39.5,30.05,NNW,338,0.4,0.9,81,0.00,,,0.00,WUHU216HW,2013-03-30 08:25:00,
2013-03-30 04:30:00,45.0,40.5,30.05,ENE,68,0.4,2.2,84,0.01,,,0.01,WUHU216HW,2013-03-30 08:30:00,
2013-03-30 04:35:00,45.0,40.1,30.05,SSW,203,0.0,2.2,83,0.01,,,0.01,WUHU216HW,2013-03-30 08:35:00,
2013-03-30 04:40:00,45.2,40.3,30.05,ESE,113,0.0,2.2,83,0.01,,,0.01,WUHU216HW,2013-03-30 08:40:00,
2013-03-30 04:46:00,45.0,40.1,30.05,ENE,68,1.1,1.6,83,0.01,,,0.01,WUHU216HW,2013-03-30 08:46:00,
2013-03-30 04:51:00,45.0,40.8,30.04,NE,45,1.6,2.5,85,0.01,,,0.01,WUHU216HW,2013-03-30 08:51:00,
2013-03-30 04:56:00,44.8,40.6,30.04,ENE,68,0.0,2.5,85,0.01,,,0.01,WUHU216HW,2013-03-30 08:56:00,
2013-03-30 05:01:00,44.8,40.6,30.04,SSW,203,2.5,2.5,85,0.01,,,0.01,WUHU216HW,2013-03-30 09:01:00,
2013-03-30 05:06:00,44.8,40.6,30.03,SW,225,0.4,2.7,85,0.01,,,0.01,WUHU216HW,2013-03-30 09:06:00,
2013-03-30 05:10:00,44.8,40.3,30.03,SW,225,0.0,2.7,84,0.01,,,0.01,WUHU216HW,2013-03-30 09:10:00,
2013-03-30 05:15:00,44.8,40.3,30.03,SW,225,0.4,0.4,84,0.01,,,0.01,WUHU216HW,2013-03-30 09:15:00,
2013-03-30 05:20:00,44.8,40.3,30.03,SW,225,0.0,0.7,84,0.01,,,0.01,WUHU216HW,2013-03-30 09:20:00,
2013-03-30 05:25:00,44.8,40.3,30.03,SW,225,0.0,0.7,84,0.01,,,0.01,WUHU216HW,2013-03-30 09:25:00,
2013-03-30 05:30:00,44.8,40.0,30.04,SW,225,0.7,1.1,83,0.00,,,0.01,WUHU216HW,2013-03-30 09:30:00,
2013-03-30 05:34:00,44.8,40.3,30.05,SW,225,1.3,1.3,84,0.00,,,0.01,WUHU216HW,2013-03-30 09:34:00,
2013-03-30 05:39:00,44.8,40.0,30.06,SW,225,0.7,1.8,83,0.00,,,0.01,WUHU216HW,2013-03-30 09:39:00,
2013-03-30 05:44:00,44.6,40.2,30.06,WSW,248,0.4,1.8,84,0.00,,,0.01,WUHU216HW,2013-03-30 09:44:00,
2013-03-30 05:49:00,44.6,40.2,30.06,SSW,203,0.0,1.3,84,0.00,,,0.01,WUHU216HW,2013-03-30 09:49:00,
2013-03-30 05:54:00,44.6,40.2,30.05,SSW,203,0.0,1.1,84,0.00,,,0.01,WUHU216HW,2013-03-30 09:54:00,
2013-03-30 05:59:00,44.6,40.2,30.05,ENE,68,0.4,1.1,84,0.00,,,0.01,WUHU216HW,2013-03-30 09:59:00,
2013-03-30 06:04:00,44.6,40.4,30.04,ENE,68,0.0,1.1,85,0.00,,,0.01,WUHU216HW,2013-03-30 10:04:00,
2013-03-30 06:09:00,44.5,40.0,30.04,ENE,68,0.2,1.1,84,0.00,,,0.01,WUHU216HW,2013-03-30 10:09:00,
2013-03-30 06:14:00,44.5,40.0,30.04,North,0,0.4,0.4,84,0.00,,,0.01,WUHU216HW,2013-03-30 10:14:00,
2013-03-30 06:19:00,44.3,39.8,30.04,SSW,203,0.2,0.4,84,0.00,,,0.01,WUHU216HW,2013-03-30 10:19:00,
2013-03-30 06:24:00,44.3,39.8,30.04,SSW,203,0.2,0.4,84,0.00,,,0.01,WUHU216HW,2013-03-30 10:24:00,
2013-03-30 06:29:00,44.3,39.8,30.04,SSW,203,0.4,0.4,84,0.00,,,0.01,WUHU216HW,2013-03-30 10:29:00,
2013-03-30 06:34:00,44.1,39.6,30.05,SSW,203,0.4,1.1,84,0.00,,,0.01,WUHU216HW,2013-03-30 10:34:00,
2013-03-30 06:39:00,44.1,39.6,30.04,SSW,203,0.0,1.1,84,0.00,,,0.01,WUHU216HW,2013-03-30 10:39:00,
2013-03-30 06:44:00,44.1,39.6,30.04,SSW,203,0.0,1.1,84,0.00,,,0.01,WUHU216HW,2013-03-30 10:44:00,
2013-03-30 06:49:00,43.9,39.7,30.05,SSW,203,0.0,0.0,85,0.00,,,0.01,WUHU216HW,2013-03-30 10:49:00,
2013-03-30 06:54:00,43.9,39.7,30.04,SSW,203,0.0,0.4,85,0.00,,,0.01,WUHU216HW,2013-03-30 10:54:00,
2013-03-30 06:59:00,43.9,39.7,30.04,ESE,113,0.7,1.1,85,0.00,,,0.01,WUHU216HW,2013-03-30 10:59:00,
2013-03-30 07:04:00,43.9,40.0,30.04,ESE,113,1.1,1.1,86,0.00,,,0.01,WUHU216HW,2013-03-30 11:04:00,
2013-03-30 07:09:00,43.7,40.2,30.04,ESE,113,0.4,1.1,87,0.00,,,0.01,WUHU216HW,2013-03-30 11:09:00,
2013-03-30 07:14:00,43.7,40.2,30.05,ESE,113,0.4,1.1,87,0.00,,,0.01,WUHU216HW,2013-03-30 11:14:00,
2013-03-30 07:19:00,43.7,40.2,30.04,ESE,113,0.0,0.9,87,0.00,,,0.01,WUHU216HW,2013-03-30 11:19:00,
2013-03-30 07:24:00,43.7,40.2,30.04,ESE,113,0.0,0.4,87,0.00,,,0.01,WUHU216HW,2013-03-30 11:24:00,
2013-03-30 07:29:00,43.7,39.8,30.04,ESE,113,0.0,0.4,86,0.00,,,0.01,WUHU216HW,2013-03-30 11:29:00,
2013-03-30 07:34:00,43.7,39.8,30.04,ESE,113,0.2,0.4,86,0.00,,,0.01,WUHU216HW,2013-03-30 11:34:00,
2013-03-30 07:39:00,43.7,39.8,30.04,ESE,113,0.0,0.2,86,0.00,,,0.01,WUHU216HW,2013-03-30 11:39:00,
2013-03-30 07:44:00,43.7,39.8,30.05,ESE,113,0.0,0.0,86,0.00,,,0.01,WUHU216HW,2013-03-30 11:44:00,
2013-03-30 07:49:00,43.7,40.2,30.05,ESE,113,0.0,0.0,87,0.00,,,0.01,WUHU216HW,2013-03-30 11:49:00,
2013-03-30 07:54:00,43.9,40.0,30.06,ESE,113,0.0,0.2,86,0.00,,,0.01,WUHU216HW,2013-03-30 11:54:00,
2013-03-30 07:59:00,44.1,40.5,30.06,ESE,113,0.0,0.2,87,0.00,,,0.01,WUHU216HW,2013-03-30 11:59:00,
2013-03-30 08:04:00,44.1,40.5,30.06,ESE,113,0.0,0.2,87,0.00,,,0.01,WUHU216HW,2013-03-30 12:04:00,
2013-03-30 08:09:00,44.3,40.7,30.06,ESE,113,0.0,0.2,87,0.00,,,0.01,WUHU216HW,2013-03-30 12:09:00,
2013-03-30 08:14:00,44.3,40.7,30.06,ESE,113,0.0,0.2,87,0.00,,,0.01,WUHU216HW,2013-03-30 12:14:00,
2013-03-30 08:19:00,44.5,40.9,30.07,ESE,113,0.0,0.4,87,0.00,,,0.01,WUHU216HW,2013-03-30 12:19:00,
2013-03-30 08:24:00,44.6,41.1,30.07,ESE,113,0.0,0.4,87,0.00,,,0.01,WUHU216HW,2013-03-30 12:24:00,
2013-03-30 08:29:00,44.8,41.2,30.07,ESE,113,0.0,0.0,87,0.00,,,0.01,WUHU216HW,2013-03-30 12:29:00,
2013-03-30 08:34:00,45.0,41.0,30.07,ESE,113,0.4,0.4,86,0.00,,,0.01,WUHU216HW,2013-03-30 12:34:00,
2013-03-30 08:39:00,45.4,41.4,30.07,ESE,113,0.4,0.7,86,0.00,,,0.01,WUHU216HW,2013-03-30 12:39:00,
2013-03-30 08:44:00,45.5,41.6,30.07,ENE,68,0.2,0.9,86,0.00,,,0.01,WUHU216HW,2013-03-30 12:44:00,
2013-03-30 08:49:00,45.7,42.1,30.07,ENE,68,1.8,2.0,87,0.00,,,0.01,WUHU216HW,2013-03-30 12:49:00,
2013-03-30 08:54:00,45.9,42.3,30.07,ENE,68,0.7,2.0,87,0.00,,,0.01,WUHU216HW,2013-03-30 12:54:00,
2013-03-30 08:59:00,46.3,42.7,30.07,NE,45,1.3,2.5,87,0.00,,,0.01,WUHU216HW,2013-03-30 12:59:00,
2013-03-30 09:04:00,46.4,42.9,30.07,East,90,1.3,2.5,87,0.00,,,0.01,WUHU216HW,2013-03-30 13:04:00,
2013-03-30 09:09:00,46.8,42.8,30.07,East,90,2.5,2.5,86,0.00,,,0.01,WUHU216HW,2013-03-30 13:09:00,
2013-03-30 09:14:00,47.3,43.4,30.07,ENE,68,0.9,2.5,86,0.00,,,0.01,WUHU216HW,2013-03-30 13:14:00,
2013-03-30 09:19:00,47.7,43.8,30.07,NE,45,2.5,3.4,86,0.00,,,0.01,WUHU216HW,2013-03-30 13:19:00,
2013-03-30 09:24:00,48.2,43.9,30.07,NNE,23,1.6,3.4,85,0.00,,,0.01,WUHU216HW,2013-03-30 13:24:00,
2013-03-30 09:29:00,48.6,44.3,30.07,NNE,23,1.6,3.4,85,0.00,,,0.01,WUHU216HW,2013-03-30 13:29:00,
2013-03-30 09:34:00,49.0,44.0,30.08,ENE,68,3.1,3.4,83,0.00,,,0.01,WUHU216HW,2013-03-30 13:34:00,
2013-03-30 09:39:00,49.1,44.1,30.07,East,90,0.4,3.4,83,0.00,,,0.01,WUHU216HW,2013-03-30 13:39:00,
2013-03-30 09:44:00,49.3,44.3,30.07,NE,45,2.5,3.1,83,0.00,,,0.01,WUHU216HW,2013-03-30 13:44:00,
2013-03-30 09:49:00,49.3,44.3,30.07,ENE,68,1.1,2.7,83,0.00,,,0.01,WUHU216HW,2013-03-30 13:49:00,
2013-03-30 09:54:00,49.5,44.2,30.07,NE,45,3.4,4.3,82,0.00,,,0.01,WUHU216HW,2013-03-30 13:54:00,
2013-03-30 09:59:00,49.3,44.0,30.07,NNE,23,0.9,4.5,82,0.00,,,0.01,WUHU216HW,2013-03-30 13:59:00,
2013-03-30 10:04:00,49.3,44.3,30.07,NE,45,2.5,4.5,83,0.00,,,0.01,WUHU216HW,2013-03-30 14:04:00,
2013-03-30 10:09:00,49.7,44.4,30.07,NNE,23,1.6,4.0,82,0.00,,,0.01,WUHU216HW,2013-03-30 14:09:00,
2013-03-30 10:14:00,50.0,44.7,30.07,NE,45,3.4,3.8,82,0.00,,,0.01,WUHU216HW,2013-03-30 14:14:00,
2013-03-30 10:19:00,50.4,44.7,30.07,ENE,68,2.5,3.6,81,0.00,,,0.01,WUHU216HW,2013-03-30 14:19:00,
2013-03-30 10:24:00,50.8,44.8,30.06,NE,45,4.5,6.0,80,0.00,,,0.01,WUHU216HW,2013-03-30 14:24:00,
2013-03-30 10:29:00,51.1,44.8,30.07,NNE,23,3.4,6.0,79,0.00,,,0.01,WUHU216HW,2013-03-30 14:29:00,
2013-03-30 10:34:00,51.5,45.2,30.07,NNE,23,4.0,5.4,79,0.00,,,0.01,WUHU216HW,2013-03-30 14:34:00,
2013-03-30 10:39:00,51.7,45.0,30.07,NE,45,5.1,5.6,78,0.00,,,0.01,WUHU216HW,2013-03-30 14:39:00,
2013-03-30 10:44:00,52.2,45.5,30.07,ENE,68,1.8,5.6,78,0.00,,,0.01,WUHU216HW,2013-03-30 14:44:00,
2013-03-30 10:49:00,52.4,44.4,30.07,ENE,68,3.6,5.4,74,0.00,,,0.01,WUHU216HW,2013-03-30 14:49:00,
2013-03-30 10:54:00,52.9,45.2,30.06,NE,45,3.4,5.6,75,0.00,,,0.01,WUHU216HW,2013-03-30 14:54:00,
2013-03-30 10:59:00,53.5,45.7,30.06,NE,45,1.1,5.6,75,0.00,,,0.01,WUHU216HW,2013-03-30 14:59:00,
2013-03-30 11:04:00,54.0,45.6,30.06,NE,45,2.5,5.1,73,0.00,,,0.01,WUHU216HW,2013-03-30 15:04:00,
2013-03-30 11:09:00,54.5,45.7,30.06,NNE,23,2.5,5.1,72,0.00,,,0.01,WUHU216HW,2013-03-30 15:09:00,
2013-03-30 11:14:00,55.3,45.7,30.06,ENE,68,0.9,5.4,70,0.00,,,0.01,WUHU216HW,2013-03-30 15:14:00,
2013-03-30 11:19:00,55.8,46.3,30.05,NNE,23,0.4,5.4,70,0.00,,,0.01,WUHU216HW,2013-03-30 15:19:00,
2013-03-30 11:24:00,56.5,46.4,30.05,NE,45,3.4,4.5,69,0.00,,,0.01,WUHU216HW,2013-03-30 15:24:00,
2013-03-30 11:29:00,57.2,46.4,30.05,NE,45,2.5,3.6,67,0.00,,,0.01,WUHU216HW,2013-03-30 15:29:00,
2013-03-30 11:34:00,58.3,47.8,30.06,NNE,23,0.9,3.4,68,0.00,,,0.01,WUHU216HW,2013-03-30 15:34:00,
2013-03-30 11:39:00,59.4,47.2,30.06,North,0,1.1,5.4,64,0.00,,,0.01,WUHU216HW,2013-03-30 15:39:00,
2013-03-30 11:44:00,59.9,47.7,30.05,NE,45,1.1,5.4,64,0.00,,,0.01,WUHU216HW,2013-03-30 15:44:00,
2013-03-30 11:49:00,60.8,49.1,30.06,NE,45,0.4,3.1,65,0.00,,,0.01,WUHU216HW,2013-03-30 15:49:00,
2013-03-30 11:54:00,61.4,48.3,30.06,ENE,68,0.9,3.4,62,0.00,,,0.01,WUHU216HW,2013-03-30 15:54:00,
2013-03-30 11:59:00,61.4,46.5,30.06,ENE,68,1.8,3.4,58,0.00,,,0.01,WUHU216HW,2013-03-30 15:59:00,
2013-03-30 12:04:00,61.6,45.7,30.05,NE,45,3.6,4.3,56,0.00,,,0.01,WUHU216HW,2013-03-30 16:04:00,
2013-03-30 12:09:00,61.6,45.7,30.05,East,90,4.5,4.9,56,0.00,,,0.01,WUHU216HW,2013-03-30 16:09:00,
2013-03-30 12:14:00,61.7,44.9,30.05,NE,45,2.2,5.8,54,0.00,,,0.01,WUHU216HW,2013-03-30 16:14:00,
2013-03-30 12:19:00,61.9,44.6,30.05,North,0,1.1,5.8,53,0.00,,,0.01,WUHU216HW,2013-03-30 16:19:00,
2013-03-30 12:24:00,62.5,46.0,30.04,SSW,203,2.0,5.1,55,0.00,,,0.01,WUHU216HW,2013-03-30 16:24:00,
2013-03-30 12:29:00,63.0,46.5,30.04,WNW,293,1.1,3.1,55,0.00,,,0.01,WUHU216HW,2013-03-30 16:29:00,
2013-03-30 12:34:00,63.7,45.7,30.04,SSW,203,3.8,4.0,52,0.00,,,0.01,WUHU216HW,2013-03-30 16:34:00,
2013-03-30 12:39:00,63.9,45.8,30.04,WSW,248,3.6,4.5,52,0.00,,,0.01,WUHU216HW,2013-03-30 16:39:00,
2013-03-30 12:44:00,63.9,45.8,30.03,East,90,1.1,4.5,52,0.00,,,0.01,WUHU216HW,2013-03-30 16:44:00,
2013-03-30 12:49:00,64.4,46.8,30.03,NE,45,1.1,4.0,53,0.00,,,0.01,WUHU216HW,2013-03-30 16:49:00,
2013-03-30 12:54:00,64.1,45.6,30.03,South,180,2.5,4.0,51,0.00,,,0.01,WUHU216HW,2013-03-30 16:54:00,
2013-03-30 12:59:00,64.3,45.7,30.03,SW,225,1.8,3.6,51,0.00,,,0.01,WUHU216HW,2013-03-30 16:59:00,
2013-03-30 13:04:00,64.8,46.7,30.02,SSW,203,0.4,3.6,52,0.00,,,0.01,WUHU216HW,2013-03-30 17:04:00,
2013-03-30 13:09:00,65.2,45.6,30.02,SSW,203,1.8,4.3,49,0.00,,,0.01,WUHU216HW,2013-03-30 17:09:00,
2013-03-30 13:14:00,65.3,45.7,30.02,WSW,248,2.2,4.3,49,0.00,,,0.01,WUHU216HW,2013-03-30 17:14:00,
2013-03-30 13:19:00,65.3,45.7,30.02,West,270,0.2,4.9,49,0.00,,,0.01,WUHU216HW,2013-03-30 17:19:00,
2013-03-30 13:24:00,65.5,45.8,30.02,West,270,1.1,4.9,49,0.00,,,0.01,WUHU216HW,2013-03-30 17:24:00,
2013-03-30 13:29:00,66.2,46.5,30.01,SW,225,1.8,2.7,49,0.00,,,0.01,WUHU216HW,2013-03-30 17:29:00,
2013-03-30 13:34:00,67.1,46.8,30.01,SSW,203,2.5,2.7,48,0.00,,,0.01,WUHU216HW,2013-03-30 17:34:00,
2013-03-30 13:39:00,67.3,47.5,30.01,SW,225,1.6,2.7,49,0.00,,,0.01,WUHU216HW,2013-03-30 17:39:00,
2013-03-30 13:44:00,66.6,46.3,30.01,SW,225,0.4,1.8,48,0.00,,,0.01,WUHU216HW,2013-03-30 17:44:00,
2013-03-30 13:49:00,66.4,44.9,30.01,NE,45,0.4,2.0,46,0.00,,,0.01,WUHU216HW,2013-03-30 17:49:00,
2013-03-30 13:54:00,67.1,45.0,30.01,ENE,68,0.2,4.0,45,0.00,,,0.01,WUHU216HW,2013-03-30 17:54:00,
2013-03-30 13:59:00,67.3,44.6,30.01,WSW,248,2.0,4.3,44,0.00,,,0.01,WUHU216HW,2013-03-30 17:59:00,
2013-03-30 14:04:00,67.7,45.5,30.01,SW,225,2.0,4.3,45,0.00,,,0.01,WUHU216HW,2013-03-30 18:04:00,
2013-03-30 14:09:00,68.8,45.3,30.01,SW,225,4.3,7.8,43,0.00,,,0.01,WUHU216HW,2013-03-30 18:09:00,
2013-03-30 14:14:00,69.5,47.1,30.00,North,0,0.4,7.8,45,0.00,,,0.01,WUHU216HW,2013-03-30 18:14:00,
2013-03-30 14:19:00,69.8,46.3,30.00,SW,225,5.4,6.7,43,0.00,,,0.01,WUHU216HW,2013-03-30 18:19:00,
2013-03-30 14:24:00,69.5,45.9,30.00,WSW,248,4.0,7.4,43,0.00,,,0.01,WUHU216HW,2013-03-30 18:24:00,
2013-03-30 14:29:00,68.9,45.5,30.00,ESE,113,0.9,7.4,43,0.00,,,0.01,WUHU216HW,2013-03-30 18:29:00,
2013-03-30 14:34:00,69.3,46.4,30.00,SW,225,1.3,4.5,44,0.00,,,0.01,WUHU216HW,2013-03-30 18:34:00,
2013-03-30 14:39:00,70.4,46.2,29.99,West,270,1.8,2.2,42,0.00,,,0.01,WUHU216HW,2013-03-30 18:39:00,
2013-03-30 14:44:00,70.9,47.3,29.99,WSW,248,3.6,3.6,43,0.00,,,0.01,WUHU216HW,2013-03-30 18:44:00,
2013-03-30 14:49:00,70.9,46.6,29.99,SSW,203,0.9,6.5,42,0.00,,,0.01,WUHU216HW,2013-03-30 18:49:00,
2013-03-30 14:54:00,70.9,46.0,29.99,SSW,203,1.8,6.5,41,0.00,,,0.01,WUHU216HW,2013-03-30 18:54:00,
2013-03-30 14:59:00,70.9,46.0,29.98,SE,135,1.6,4.7,41,0.00,,,0.01,WUHU216HW,2013-03-30 18:59:00,
2013-03-30 15:04:00,71.3,45.7,29.98,NNE,23,1.1,4.0,40,0.00,,,0.01,WUHU216HW,2013-03-30 19:04:00,
2013-03-30 15:09:00,70.0,43.9,29.98,NNE,23,2.2,4.5,39,0.00,,,0.01,WUHU216HW,2013-03-30 19:09:00,
2013-03-30 15:14:00,69.8,45.1,29.98,SSW,203,5.6,5.6,41,0.00,,,0.01,WUHU216HW,2013-03-30 19:14:00,
2013-03-30 15:19:00,69.8,43.0,29.98,SW,225,4.9,7.4,38,0.00,,,0.01,WUHU216HW,2013-03-30 19:19:00,
2013-03-30 15:24:00,70.0,44.7,29.98,WSW,248,2.7,7.4,40,0.00,,,0.01,WUHU216HW,2013-03-30 19:24:00,
2013-03-30 15:29:00,70.2,44.0,29.97,NE,45,0.9,6.3,39,0.00,,,0.01,WUHU216HW,2013-03-30 19:29:00,
2013-03-30 15:34:00,70.4,44.2,29.97,NE,45,0.0,3.6,39,0.00,,,0.01,WUHU216HW,2013-03-30 19:34:00,
2013-03-30 15:39:00,71.5,45.2,29.97,South,180,1.3,2.9,39,0.00,,,0.01,WUHU216HW,2013-03-30 19:39:00,
2013-03-30 15:44:00,72.0,45.6,29.97,ENE,68,3.1,3.4,39,0.00,,,0.01,WUHU216HW,2013-03-30 19:44:00,
2013-03-30 15:49:00,72.2,45.1,29.97,West,270,0.9,3.4,38,0.00,,,0.01,WUHU216HW,2013-03-30 19:49:00,
2013-03-30 15:54:00,71.6,43.8,29.97,SW,225,4.0,6.9,37,0.00,,,0.01,WUHU216HW,2013-03-30 19:54:00,
2013-03-30 15:59:00,70.9,43.2,29.96,SSW,203,4.7,9.6,37,0.00,,,0.01,WUHU216HW,2013-03-30 19:59:00,
2013-03-30 16:04:00,70.9,43.2,29.96,SSE,158,4.7,9.6,37,0.00,,,0.01,WUHU216HW,2013-03-30 20:04:00,
2013-03-30 16:09:00,71.3,43.6,29.96,West,270,3.8,7.6,37,0.00,,,0.01,WUHU216HW,2013-03-30 20:09:00,
2013-03-30 16:14:00,70.9,43.2,29.96,SW,225,3.4,8.5,37,0.00,,,0.01,WUHU216HW,2013-03-30 20:14:00,
2013-03-30 16:19:00,71.3,44.3,29.96,South,180,0.9,8.5,38,0.00,,,0.01,WUHU216HW,2013-03-30 20:19:00,
2013-03-30 16:24:00,71.5,44.5,29.96,SSE,158,0.4,5.4,38,0.00,,,0.01,WUHU216HW,2013-03-30 20:24:00,
2013-03-30 16:29:00,71.3,43.6,29.95,South,180,3.4,6.0,37,0.00,,,0.01,WUHU216HW,2013-03-30 20:29:00,
2013-03-30 16:34:00,70.7,43.0,29.95,SSW,203,2.0,6.9,37,0.00,,,0.01,WUHU216HW,2013-03-30 20:34:00,
2013-03-30 16:39:00,70.9,43.9,29.95,SW,225,2.9,6.9,38,0.00,,,0.01,WUHU216HW,2013-03-30 20:39:00,
2013-03-30 16:44:00,70.9,43.9,29.95,West,270,3.1,6.0,38,0.00,,,0.01,WUHU216HW,2013-03-30 20:44:00,
2013-03-30 16:49:00,70.7,43.0,29.95,SSW,203,3.6,5.4,37,0.00,,,0.01,WUHU216HW,2013-03-30 20:49:00,
2013-03-30 16:54:00,71.3,44.3,29.95,SW,225,1.1,5.4,38,0.00,,,0.01,WUHU216HW,2013-03-30 20:54:00,
2013-03-30 16:59:00,71.6,43.8,29.94,SW,225,3.6,5.6,37,0.00,,,0.01,WUHU216HW,2013-03-30 20:59:00,
2013-03-30 17:04:00,71.6,43.8,29.95,SSW,203,1.8,5.6,37,0.00,,,0.01,WUHU216HW,2013-03-30 21:04:00,
2013-03-30 17:09:00,72.0,44.2,29.94,SW,225,4.0,4.0,37,0.00,,,0.01,WUHU216HW,2013-03-30 21:09:00,
2013-03-30 17:14:00,72.0,44.2,29.94,West,270,4.0,4.0,37,0.00,,,0.01,WUHU216HW,2013-03-30 21:14:00,
2013-03-30 17:19:00,71.3,42.9,29.94,SSE,158,2.9,7.2,36,0.00,,,0.01,WUHU216HW,2013-03-30 21:19:00,
2013-03-30 17:24:00,71.3,42.0,29.95,SW,225,2.2,7.2,35,0.00,,,0.01,WUHU216HW,2013-03-30 21:24:00,
2013-03-30 17:29:00,71.1,42.7,29.94,NNE,23,0.9,6.9,36,0.00,,,0.01,WUHU216HW,2013-03-30 21:29:00,
2013-03-30 17:34:00,71.1,42.0,29.94,SSW,203,4.7,6.3,35,0.00,,,0.01,WUHU216HW,2013-03-30 21:34:00,
2013-03-30 17:39:00,70.9,43.2,29.94,NNE,23,0.7,6.3,37,0.00,,,0.01,WUHU216HW,2013-03-30 21:39:00,
2013-03-30 17:44:00,71.1,43.4,29.94,SSW,203,1.3,5.4,37,0.00,,,0.01,WUHU216HW,2013-03-30 21:44:00,
2013-03-30 17:49:00,71.3,43.6,29.94,SW,225,1.6,5.8,37,0.00,,,0.01,WUHU216HW,2013-03-30 21:49:00,
2013-03-30 17:54:00,70.9,41.8,29.94,SSW,203,4.7,5.8,35,0.00,,,0.01,WUHU216HW,2013-03-30 21:54:00,
2013-03-30 17:59:00,69.5,42.0,29.94,SSW,203,2.5,5.8,37,0.00,,,0.01,WUHU216HW,2013-03-30 21:59:00,
2013-03-30 18:04:00,68.6,41.9,29.93,North,0,0.0,4.9,38,0.00,,,0.01,WUHU216HW,2013-03-30 22:04:00,
2013-03-30 18:09:00,68.6,41.9,29.93,South,180,0.0,4.9,38,0.00,,,0.01,WUHU216HW,2013-03-30 22:09:00,
2013-03-30 18:14:00,68.4,41.7,29.93,SSW,203,2.0,6.7,38,0.00,,,0.01,WUHU216HW,2013-03-30 22:14:00,
2013-03-30 18:19:00,68.0,41.4,29.93,SW,225,3.4,6.7,38,0.00,,,0.01,WUHU216HW,2013-03-30 22:19:00,
2013-03-30 18:24:00,67.9,41.9,29.93,SSW,203,1.6,4.0,39,0.00,,,0.01,WUHU216HW,2013-03-30 22:24:00,
2013-03-30 18:29:00,67.5,41.6,29.93,SW,225,2.0,4.0,39,0.00,,,0.01,WUHU216HW,2013-03-30 22:29:00,
2013-03-30 18:34:00,67.3,41.5,29.93,WSW,248,3.1,4.7,39,0.00,,,0.01,WUHU216HW,2013-03-30 22:34:00,
2013-03-30 18:39:00,66.8,40.2,29.93,SW,225,4.5,4.7,38,0.00,,,0.01,WUHU216HW,2013-03-30 22:39:00,
2013-03-30 18:44:00,66.4,40.0,29.93,SSW,203,1.1,4.7,38,0.00,,,0.01,WUHU216HW,2013-03-30 22:44:00,
2013-03-30 18:49:00,66.2,40.5,29.93,SSW,203,1.6,4.7,39,0.00,,,0.01,WUHU216HW,2013-03-30 22:49:00,
2013-03-30 18:54:00,65.9,40.1,29.93,SSW,203,2.2,4.5,39,0.00,,,0.01,WUHU216HW,2013-03-30 22:54:00,
2013-03-30 18:59:00,65.5,39.9,29.93,SSW,203,1.6,4.5,39,0.00,,,0.01,WUHU216HW,2013-03-30 22:59:00,
2013-03-30 19:04:00,65.3,40.4,29.93,SSW,203,1.8,4.5,40,0.00,,,0.01,WUHU216HW,2013-03-30 23:04:00,
2013-03-30 19:09:00,65.2,40.2,29.93,South,180,2.5,4.5,40,0.00,,,0.01,WUHU216HW,2013-03-30 23:09:00,
2013-03-30 19:14:00,64.8,39.3,29.93,SSW,203,0.7,4.0,39,0.00,,,0.01,WUHU216HW,2013-03-30 23:14:00,
2013-03-30 19:19:00,64.6,39.8,29.93,SSW,203,2.2,4.0,40,0.00,,,0.01,WUHU216HW,2013-03-30 23:19:00,
2013-03-30 19:24:00,64.3,39.4,29.93,SW,225,0.9,3.4,40,0.00,,,0.01,WUHU216HW,2013-03-30 23:24:00,
2013-03-30 19:29:00,63.9,39.2,29.93,SSW,203,1.8,3.4,40,0.00,,,0.01,WUHU216HW,2013-03-30 23:29:00,
2013-03-30 19:34:00,63.7,39.0,29.93,South,180,0.4,3.4,40,0.00,,,0.01,WUHU216HW,2013-03-30 23:34:00,
2013-03-30 19:39:00,63.4,39.3,29.93,SSW,203,0.7,1.8,41,0.00,,,0.01,WUHU216HW,2013-03-30 23:39:00,
2013-03-30 19:44:00,63.0,38.9,29.93,SSW,203,0.4,1.6,41,0.00,,,0.01,WUHU216HW,2013-03-30 23:44:00,
2013-03-30 19:49:00,62.5,38.4,29.92,SSW,203,0.7,2.7,41,0.00,,,0.01,WUHU216HW,2013-03-30 23:49:00,
2013-03-30 19:54:00,62.1,38.6,29.93,SSW,203,0.0,2.7,42,0.00,,,0.01,WUHU216HW,2013-03-30 23:54:00,
2013-03-30 19:59:00,61.6,38.7,29.93,SSW,203,0.0,0.7,43,0.00,,,0.01,WUHU216HW,2013-03-30 23:59:00,
2013-03-30 20:04:00,61.0,38.3,29.93,SSW,203,0.0,0.2,43,0.00,,,0.01,WUHU216HW,2013-03-31 00:04:00,
2013-03-30 20:09:00,60.7,37.9,29.92,SSW,203,0.2,0.4,43,0.00,,,0.01,WUHU216HW,2013-03-31 00:09:00,
2013-03-30 20:14:00,60.5,38.3,29.92,SSW,203,0.0,0.4,44,0.00,,,0.01,WUHU216HW,2013-03-31 00:14:00,
2013-03-30 20:19:00,60.1,38.0,29.92,SSW,203,0.0,0.4,44,0.00,,,0.01,WUHU216HW,2013-03-31 00:19:00,
2013-03-30 20:24:00,59.8,37.7,29.92,SSW,203,0.0,0.4,44,0.00,,,0.01,WUHU216HW,2013-03-31 00:24:00,
2013-03-30 20:29:00,59.4,38.0,29.92,SSE,158,0.4,0.4,45,0.00,,,0.01,WUHU216HW,2013-03-31 00:29:00,
2013-03-30 20:34:00,59.0,38.2,29.92,SSE,158,0.0,0.7,46,0.00,,,0.01,WUHU216HW,2013-03-31 00:34:00,
2013-03-30 20:39:00,58.7,37.9,29.92,SSE,158,0.0,0.7,46,0.00,,,0.01,WUHU216HW,2013-03-31 00:39:00,
2013-03-30 20:44:00,58.3,37.5,29.92,SSE,158,0.0,0.4,46,0.00,,,0.01,WUHU216HW,2013-03-31 00:44:00,
2013-03-30 20:49:00,58.0,37.8,29.92,ESE,113,0.9,0.9,47,0.00,,,0.01,WUHU216HW,2013-03-31 00:49:00,
2013-03-30 20:54:00,57.8,38.3,29.92,ESE,113,0.2,1.1,48,0.00,,,0.01,WUHU216HW,2013-03-31 00:54:00,
2013-03-30 20:59:00,57.4,37.9,29.92,ESE,113,1.1,1.1,48,0.00,,,0.01,WUHU216HW,2013-03-31 00:59:00,
2013-03-30 21:04:00,57.2,37.7,29.92,East,90,1.1,1.1,48,0.00,,,0.01,WUHU216HW,2013-03-31 01:04:00,
2013-03-30 21:09:00,57.1,38.2,29.92,East,90,0.0,1.1,49,0.00,,,0.01,WUHU216HW,2013-03-31 01:09:00,
2013-03-30 21:14:00,56.9,38.0,29.92,East,90,0.4,1.1,49,0.00,,,0.01,WUHU216HW,2013-03-31 01:14:00,
2013-03-30 21:19:00,56.5,38.2,29.92,East,90,1.1,1.3,50,0.00,,,0.01,WUHU216HW,2013-03-31 01:19:00,
2013-03-30 21:24:00,56.3,38.0,29.92,East,90,0.7,1.6,50,0.00,,,0.01,WUHU216HW,2013-03-31 01:24:00,
2013-03-30 21:29:00,56.2,38.3,29.92,ENE,68,0.7,1.6,51,0.00,,,0.01,WUHU216HW,2013-03-31 01:29:00,
2013-03-30 21:34:00,56.2,37.8,29.92,East,90,0.7,1.3,50,0.00,,,0.01,WUHU216HW,2013-03-31 01:34:00,
2013-03-30 21:39:00,56.0,37.6,29.91,East,90,0.4,1.3,50,0.00,,,0.01,WUHU216HW,2013-03-31 01:39:00,
2013-03-30 21:44:00,55.8,37.4,29.91,East,90,0.9,1.1,50,0.00,,,0.01,WUHU216HW,2013-03-31 01:44:00,
2013-03-30 21:49:00,55.6,37.7,29.91,East,90,0.0,1.1,51,0.00,,,0.01,WUHU216HW,2013-03-31 01:49:00,
2013-03-30 21:54:00,55.4,37.5,29.91,East,90,0.4,1.1,51,0.00,,,0.01,WUHU216HW,2013-03-31 01:54:00,
2013-03-30 21:59:00,55.4,37.5,29.91,East,90,0.0,0.9,51,0.00,,,0.01,WUHU216HW,2013-03-31 01:59:00,
2013-03-30 22:04:00,55.1,37.7,29.91,ENE,68,0.0,0.9,52,0.00,,,0.01,WUHU216HW,2013-03-31 02:04:00,
2013-03-30 22:09:00,54.9,37.5,29.91,ENE,68,0.4,0.7,52,0.00,,,0.01,WUHU216HW,2013-03-31 02:09:00,
2013-03-30 22:14:00,54.5,37.7,29.91,ENE,68,0.4,0.7,53,0.00,,,0.01,WUHU216HW,2013-03-31 02:14:00,
2013-03-30 22:19:00,54.2,37.4,29.92,ENE,68,0.0,0.7,53,0.00,,,0.01,WUHU216HW,2013-03-31 02:19:00,
2013-03-30 22:24:00,53.8,37.5,29.92,ENE,68,0.2,0.7,54,0.00,,,0.01,WUHU216HW,2013-03-31 02:24:00,
2013-03-30 22:29:00,53.8,38.0,29.91,ENE,68,0.4,0.7,55,0.00,,,0.01,WUHU216HW,2013-03-31 02:29:00,
2013-03-30 22:34:00,54.0,38.2,29.91,ENE,68,0.2,0.9,55,0.00,,,0.01,WUHU216HW,2013-03-31 02:34:00,
2013-03-30 22:39:00,54.0,38.2,29.91,ENE,68,0.0,0.9,55,0.00,,,0.01,WUHU216HW,2013-03-31 02:39:00,
2013-03-30 22:44:00,54.0,38.2,29.91,ENE,68,0.0,0.4,55,0.00,,,0.01,WUHU216HW,2013-03-31 02:44:00,
2013-03-30 22:49:00,54.2,38.8,29.91,ENE,68,0.0,0.4,56,0.00,,,0.01,WUHU216HW,2013-03-31 02:49:00,
2013-03-30 22:54:00,54.4,38.4,29.91,ENE,68,0.0,0.4,55,0.00,,,0.01,WUHU216HW,2013-03-31 02:54:00,
2013-03-30 22:59:00,54.4,38.9,29.91,ENE,68,0.2,0.2,56,0.00,,,0.01,WUHU216HW,2013-03-31 02:59:00,
2013-03-30 23:04:00,54.5,39.1,29.91,ENE,68,0.0,0.4,56,0.00,,,0.01,WUHU216HW,2013-03-31 03:04:00,
2013-03-30 23:09:00,54.5,39.1,29.91,ENE,68,0.0,0.4,56,0.00,,,0.01,WUHU216HW,2013-03-31 03:09:00,
2013-03-30 23:14:00,54.5,38.6,29.91,ENE,68,0.0,0.0,55,0.00,,,0.01,WUHU216HW,2013-03-31 03:14:00,
2013-03-30 23:19:00,54.5,39.1,29.91,ENE,68,0.0,0.7,56,0.00,,,0.01,WUHU216HW,2013-03-31 03:19:00,
2013-03-30 23:24:00,54.5,40.1,29.91,ENE,68,0.7,0.9,58,0.00,,,0.01,WUHU216HW,2013-03-31 03:24:00,
2013-03-30 23:29:00,54.4,39.4,29.91,ENE,68,0.4,1.1,57,0.00,,,0.01,WUHU216HW,2013-03-31 03:29:00,
2013-03-30 23:34:00,54.0,40.0,29.91,WNW,293,0.4,1.1,59,0.00,,,0.01,WUHU216HW,2013-03-31 03:34:00,
2013-03-30 23:39:00,53.8,40.7,29.91,West,270,0.9,1.3,61,0.00,,,0.01,WUHU216HW,2013-03-31 03:39:00,
2013-03-30 23:44:00,53.6,40.5,29.91,West,270,1.1,1.6,61,0.00,,,0.01,WUHU216HW,2013-03-31 03:44:00,
2013-03-30 23:49:00,53.6,41.0,29.92,West,270,1.1,1.8,62,0.00,,,0.01,WUHU216HW,2013-03-31 03:49:00,
2013-03-30 23:54:00,53.6,41.0,29.92,WSW,248,1.6,2.5,62,0.00,,,0.01,WUHU216HW,2013-03-31 03:54:00,
2013-03-30 23:59:00,53.6,41.0,29.92,SW,225,1.1,2.5,62,0.00,,,0.01,WUHU216HW,2013-03-31 03:59:00,